This demonstration page uses our WeatherBlox Daily Observations layout. Learn more.

Left ArrowRight Arrow

Hourly Observations for January 10, 2022

Temp ( °F °C ) Dew Point ( °F °C ) Humidity (%) Winds ( mph kmh ) Pressure ( in mb ) Visibility ( mi km ) Precip ( " mm )
12:54 am 00:54 Clear 23 -5 9 -12.8 55 55 WSW 5 7 30.58 1035 10 16 0.00 0.00
1:54 am 01:54 Clear 21 -6.1 10 -12.2 62 62 Calm 30.57 1035 10 16 0.00 0.00
2:54 am 02:54 Clear 17 -8.3 9 -12.8 70 70 Calm 30.57 1035 10 16 0.00 0.00
3:54 am 03:54 Clear 16 -8.9 9 -12.8 74 74 WSW 3 6 30.57 1035 10 16 0.00 0.00
4:54 am 04:54 Clear 16 -8.9 9 -12.8 74 74 SSW 3 6 30.57 1035 10 16 0.00 0.00
5:54 am 05:54 Clear 15 -9.4 9 -12.8 77 77 Calm 30.61 1037 10 16 0.00 0.00
6:54 am 06:54 Clear 14 -10 8 -13.3 77 77 Calm 30.63 1037 10 16 0.00 0.00
7:54 am 07:54 Sunny 14 -10 8 -13.3 77 77 Calm 30.65 1038 10 16 0.00 0.00
8:54 am 08:54 Sunny 20 -6.7 12 -11.1 71 71 Calm 30.65 1038 10 16 0.00 0.00
9:54 am 09:54 Sunny 26 -3.3 14 -10 60 60 NE 6 9 30.66 1038 10 16 0.00 0.00
10:54 am 10:54 Sunny 29 -1.7 10 -12.2 45 45 VRB 3 6 30.66 1038 10 16 0.00 0.00
11:54 am 11:54 Sunny 31 -0.6 10 -12.2 42 42 Calm 30.63 1037 10 16 0.00 0.00
12:54 pm 12:54 Sunny 34 1.1 12 -11.1 40 40 VRB 5 7 30.61 1037 10 16 0.00 0.00
1:54 pm 13:54 Sunny 38 3.3 12 -11.1 34 34 VRB 6 9 30.56 1035 10 16 0.00 0.00
2:54 pm 14:54 Sunny 41 5 16 -8.9 36 36 S 3 6 30.55 1035 10 16 0.00 0.00
3:54 pm 15:54 Sunny 42 5.6 17 -8.3 36 36 VRB 3 6 30.55 1035 10 16 0.00 0.00
4:54 pm 16:54 Sunny 37 2.8 15 -9.4 41 41 E 6 9 30.55 1035 10 16 0.00 0.00
5:54 pm 17:54 Clear 33 0.6 14 -10 45 45 E 7 11 30.54 1034 10 16 0.00 0.00
6:54 pm 18:54 Clear 32 0 16 -8.9 52 52 SE 7 11 30.53 1034 10 16 0.00 0.00
7:54 pm 19:54 Clear 30 -1.1 16 -8.9 56 56 SE 9 15 30.52 1034 10 16 0.00 0.00
8:54 pm 20:54 Clear 28 -2.2 16 -8.9 60 60 SSE 10 17 30.48 1032 10 16 0.00 0.00
9:54 pm 21:54 Clear 26 -3.3 16 -8.9 66 66 S 7 11 30.46 1031 10 16 0.00 0.00
10:54 pm 22:54 Clear 25 -3.9 16 -8.9 69 69 S 6 9 30.44 1031 10 16 0.00 0.00
11:54 pm 23:54 Clear 24 -4.4 16 -8.9 71 71 SSE 5 7 30.42 1030 10 16 0.00 0.00

Powered by AerisWeather